TimeMDT,TemperatureF,Dew PointF,Humidity,Sea Level PressureIn,VisibilityMPH,Wind Direction,Wind SpeedMPH,Gust SpeedMPH,PrecipitationIn,Events,Conditions,WindDirDegrees,DateUTC
12:15 AM,57.6,20.7,24,30.21,10.0,NNW,8.1,-,N/A,,Clear,330,2013-07-22 06:15:00
12:35 AM,58.6,19.0,21,30.20,10.0,North,4.6,-,N/A,,Clear,350,2013-07-22 06:35:00
12:55 AM,55.0,23.2,29,30.21,10.0,NNW,5.8,-,N/A,,Clear,340,2013-07-22 06:55:00
1:15 AM,55.9,19.9,25,30.21,10.0,NNW,5.8,-,N/A,,Clear,330,2013-07-22 07:15:00
1:35 AM,55.9,20.1,25,30.21,10.0,North,10.4,-,N/A,,Clear,350,2013-07-22 07:35:00
1:55 AM,54.1,20.8,27,30.20,10.0,NNW,13.8,-,N/A,,Clear,340,2013-07-22 07:55:00
2:15 AM,54.7,19.6,25,30.20,10.0,NNW,11.5,-,N/A,,Clear,340,2013-07-22 08:15:00
2:35 AM,54.5,19.9,26,30.20,10.0,North,9.2,-,N/A,,Clear,350,2013-07-22 08:35:00
2:55 AM,53.1,20.7,28,30.20,10.0,North,10.4,-,N/A,,Clear,350,2013-07-22 08:55:00
3:15 AM,52.7,20.7,29,30.20,10.0,NNW,12.7,-,N/A,,Clear,340,2013-07-22 09:15:00
3:35 AM,51.8,20.7,30,30.20,10.0,North,12.7,-,N/A,,Clear,350,2013-07-22 09:35:00
3:55 AM,50.4,21.4,32,30.20,10.0,NNW,10.4,-,N/A,,Clear,340,2013-07-22 09:55:00
4:15 AM,49.5,21.4,33,30.20,10.0,NNW,10.4,-,N/A,,Clear,330,2013-07-22 10:15:00
4:35 AM,49.6,21.2,33,30.20,10.0,NNW,11.5,-,N/A,,Clear,340,2013-07-22 10:35:00
4:55 AM,48.6,22.5,36,30.20,10.0,NNW,9.2,-,N/A,,Clear,340,2013-07-22 10:55:00
5:15 AM,49.3,21.9,34,30.20,10.0,NNW,11.5,-,N/A,,Clear,330,2013-07-22 11:15:00
5:35 AM,49.3,21.7,34,30.20,10.0,North,10.4,-,N/A,,Clear,350,2013-07-22 11:35:00
5:55 AM,44.4,26.8,50,30.21,10.0,Calm,Calm,-,N/A,,Clear,0,2013-07-22 11:55:00
6:15 AM,45.0,26.1,48,30.22,10.0,Calm,Calm,-,N/A,,Clear,0,2013-07-22 12:15:00
6:35 AM,46.8,24.6,42,30.22,10.0,Calm,Calm,-,N/A,,Clear,0,2013-07-22 12:35:00
6:55 AM,49.1,25.3,40,30.22,10.0,North,4.6,-,N/A,,Clear,360,2013-07-22 12:55:00
7:35 AM,53.1,26.2,35,30.22,10.0,NNW,8.1,-,N/A,,Clear,340,2013-07-22 13:35:00
8:35 AM,60.1,28.6,30,30.24,10.0,North,4.6,-,N/A,,Clear,360,2013-07-22 14:35:00
8:55 AM,63.9,28.6,26,30.24,10.0,North,3.5,-,N/A,,Clear,10,2013-07-22 14:55:00
9:15 AM,67.8,26.8,21,30.24,10.0,WSW,5.8,-,N/A,,Clear,240,2013-07-22 15:15:00
9:35 AM,72.1,22.3,15,30.24,10.0,WSW,13.8,17.3,N/A,,Clear,250,2013-07-22 15:35:00
9:55 AM,74.7,19.4,13,30.24,10.0,West,10.4,-,N/A,,Clear,270,2013-07-22 15:55:00
10:15 AM,76.8,17.1,11,30.24,10.0,West,13.8,-,N/A,,Clear,280,2013-07-22 16:15:00
10:35 AM,78.4,15.1,9,30.24,10.0,West,15.0,18.4,N/A,,Clear,260,2013-07-22 16:35:00
10:55 AM,80.8,13.8,8,30.24,10.0,West,16.1,23.0,N/A,,Clear,280,2013-07-22 16:55:00
11:15 AM,82.0,10.4,7,30.24,10.0,West,21.9,26.5,N/A,,Clear,270,2013-07-22 17:15:00
11:35 AM,-9999,-9999,N/A,30.25,10.0,WNW,17.3,28.8,N/A,,Clear,290,2013-07-22 17:35:00
11:55 AM,-9999,-9999,N/A,30.25,10.0,West,18.4,32.2,N/A,,Clear,280,2013-07-22 17:55:00
12:15 PM,-9999,-9999,N/A,30.25,10.0,WNW,19.6,27.6,N/A,,Clear,290,2013-07-22 18:15:00
12:35 PM,-9999,-9999,N/A,30.24,10.0,West,18.4,32.2,N/A,,Clear,280,2013-07-22 18:35:00
12:55 PM,-9999,-9999,N/A,30.24,10.0,West,19.6,27.6,N/A,,Clear,270,2013-07-22 18:55:00
1:15 PM,-9999,-9999,N/A,30.24,10.0,West,23.0,32.2,N/A,,Clear,280,2013-07-22 19:15:00
1:35 PM,-9999,-9999,N/A,30.24,10.0,West,18.4,34.5,N/A,,Clear,270,2013-07-22 19:35:00
1:55 PM,85.8,11.1,6,30.24,10.0,West,23.0,33.4,N/A,,Clear,270,2013-07-22 19:55:00
2:15 PM,-9999,-9999,N/A,30.24,10.0,West,20.7,32.2,N/A,,Clear,280,2013-07-22 20:15:00
2:35 PM,86.4,12.4,6,30.24,10.0,West,20.7,34.5,N/A,,Clear,280,2013-07-22 20:35:00
2:55 PM,85.6,12.4,6,30.24,10.0,WNW,25.3,33.4,N/A,,Clear,290,2013-07-22 20:55:00
3:15 PM,85.8,12.9,7,30.24,10.0,West,21.9,33.4,N/A,,Clear,280,2013-07-22 21:15:00
3:35 PM,-9999,-9999,N/A,30.24,10.0,WNW,19.6,31.1,N/A,,Clear,290,2013-07-22 21:35:00
3:55 PM,86.9,14.4,7,30.23,10.0,West,18.4,32.2,N/A,,Clear,270,2013-07-22 21:55:00
4:15 PM,-9999,-9999,N/A,30.22,10.0,West,18.4,28.8,N/A,,Clear,270,2013-07-22 22:15:00
4:35 PM,-9999,-9999,N/A,30.22,10.0,West,20.7,29.9,N/A,,Clear,270,2013-07-22 22:35:00
4:55 PM,-9999,-9999,N/A,30.22,10.0,West,21.9,31.1,N/A,,Clear,270,2013-07-22 22:55:00
5:15 PM,-9999,-9999,N/A,30.22,10.0,WNW,18.4,28.8,N/A,,Clear,290,2013-07-22 23:15:00
5:35 PM,86.4,15.1,7,30.22,10.0,West,15.0,19.6,N/A,,Clear,270,2013-07-22 23:35:00
5:55 PM,-9999,-9999,N/A,30.21,10.0,WNW,16.1,20.7,N/A,,Clear,290,2013-07-22 23:55:00
6:15 PM,-9999,-9999,N/A,30.20,10.0,WNW,17.3,21.9,N/A,,Clear,290,2013-07-23 00:15:00
6:35 PM,-9999,-9999,N/A,30.20,10.0,West,13.8,25.3,N/A,,Clear,270,2013-07-23 00:35:00
6:55 PM,-9999,-9999,N/A,30.20,10.0,WNW,16.1,19.6,N/A,,Clear,300,2013-07-23 00:55:00
7:15 PM,83.8,14.7,8,30.21,10.0,NW,17.3,26.5,N/A,,Clear,320,2013-07-23 01:15:00
7:35 PM,82.6,13.1,7,30.21,10.0,WNW,13.8,20.7,N/A,,Clear,300,2013-07-23 01:35:00
7:55 PM,81.5,14.2,8,30.21,10.0,NW,12.7,-,N/A,,Clear,320,2013-07-23 01:55:00
8:15 PM,78.8,14.4,9,30.22,10.0,NW,8.1,-,N/A,,Clear,310,2013-07-23 02:15:00
8:35 PM,75.4,13.5,9,30.22,10.0,NW,8.1,-,N/A,,Clear,310,2013-07-23 02:35:00
8:55 PM,72.9,13.1,10,30.22,10.0,NW,6.9,-,N/A,,Clear,310,2013-07-23 02:55:00
9:15 PM,72.1,12.9,10,30.22,10.0,NNW,5.8,-,N/A,,Clear,330,2013-07-23 03:15:00
9:35 PM,71.1,13.5,11,30.24,10.0,NNW,4.6,-,N/A,,Clear,330,2013-07-23 03:35:00
9:55 PM,70.7,13.6,11,30.24,10.0,Calm,Calm,-,N/A,,Clear,0,2013-07-23 03:55:00
10:15 PM,71.8,12.9,10,30.25,10.0,WSW,3.5,-,N/A,,Clear,250,2013-07-23 04:15:00
10:35 PM,70.5,12.9,11,30.26,10.0,WSW,5.8,-,N/A,,Clear,250,2013-07-23 04:35:00
10:55 PM,69.1,12.9,11,30.26,10.0,West,6.9,-,N/A,,Clear,260,2013-07-23 04:55:00
11:15 PM,67.6,13.1,12,30.26,10.0,WSW,6.9,-,N/A,,Clear,250,2013-07-23 05:15:00
11:35 PM,65.3,13.5,13,30.26,10.0,North,4.6,-,N/A,,Clear,360,2013-07-23 05:35:00
11:55 PM,61.5,16.5,17,30.26,10.0,North,5.8,-,N/A,,Clear,360,2013-07-23 05:55:00